Weather in Obrochnoye

Russia / Republic of Mordovia     54°39′54″N   45°20′21″E
temp.,
°C
wind,
m/s
gust,
m/s
humid.,
%
clouds,
%
prec.,
mm/h
press.,
hPa
HPBL,
m
28 february, sun
sun2800:00−17nnw379590 0.0 1010168
03:00−19nw379669 0.0 1012144
06:00−21nnw35970 0.0 1012101
09:00−18nnw36930 0.0 1013246
12:00−14nnw369025 0.0 1014373
15:00−13nw468926 0.0 1015405
18:00−17nnw339421 0.0 101648
21:00−18nnw229511 0.0 101920
1 march, mon
mon100:00−19nw22975 0.0 102020
03:00−19nw22985 0.0 102220
06:00−20wnw129815 0.0 102320
09:00−15w129313 0.0 1024127
12:00−10w249062 0.0 1023347
15:00−8wsw369381 0.1 1022409
18:00−11sw379698 0.1 1020144
21:00−7sw4109599 0.1 1018402
2 march, tue
tue200:00−5sw61293100 0.1 1013460
03:00−3wsw71496100 1.3 1009698
06:00−1wsw71496100 1.4 1005753
09:000w61198100 3.1 1002764
12:000wnw51099100 0.5 1001627
15:00+1nw4109398 0.7 1001858
18:00−2wnw4129091 0.1 1002492
21:00−4wnw4119295 0.2 1003368
3 march, wed
wed300:00−5wnw3119691 0.1 1003336
03:00−3wnw4109495 0.2 1004557
06:00−5nw4119598 0.1 1004468
09:00−4nw6119198 0.3 1006648
12:00−4nw61189100 0.1 1008736
15:00−4nw71293100 0.6 1009730
18:00−6nw51289100 0.2 1011628
21:00−6nw4119197 0.2 1014604
4 march, thu
thu400:00−10wnw379557 0.0 1015140
03:00−11w359658 0.0 101599
06:00−11wsw489756 0.0 1014169
09:00−6wsw5119478 0.1 1012417
12:00−3wsw81490100 0.0 1010708
15:00−1wsw81586100 0.0 1007857
18:00−1wsw81588100 0.0 1005789
21:00−2wsw81688100 0.0 1004844